WORLDVIEW-3 (WV-3)

Last updated on Sat Apr 13 2024 01:02:24 GMT+0100 (British Summer Time)

1 40115U 14048A 24103.51606641 .00001438 00000+0 17372-3 0 9995 2 40115 97.8300 177.6461 0002406 3.3856 356.7375 14.85270813523824
UTC large
Height (km)
Speed (km/s)
/
Latitude / Longitude
Inclination (degrees)
Orbital Period (minutes)
Azimuth
Elevation
Range (km)
Doppler Factor

Next 0 passes for location: London (51.5072 / 0.1276)

Sorry there are no passes over London.